Flag for Ecuador Weather past 2 weeks in Guayaquil, Ecuador

Now
75 °F

Passing clouds.


Feels Like: 75 °F
Forecast: 74 / 89 °F
Wind: 15 mph from Southwest

Location: Guayaquil / Simon Bolivar

Current Time: Jul 4, 2015 at 2:54:10 AM

Latest Report: Jul 4, 2015 at 2:00 AM


Visibility: N/A

Pressure: 29.74 "Hg

Humidity: 83%

Dew point: 70 °F

Location of GuayaquilLocation

Historic Weather in Guayaquil — Graph

°F

Guayaquil temperature yesterday

Maximum temperature yesterday: 91 °F (at 4:00 PM)
Minimum temperature yesterday: 75 °F (at 4:00 AM)
Average temperature yesterday: 83 °F

Past Weeks' High & Low Weather Summary

 TemperatureHumidityPressure
High91 °F (Jun 24, 2:00 PM)94% (Jun 19, 7:00 AM)29.89 "Hg (Jun 19, 7:00 AM)
Low73 °F (Jun 25, 1:00 AM)20% (Jun 20, 6:00 PM)29.62 "Hg (Jul 3, 5:00 PM)
Average81 °F72%29.79 "Hg
* Reported Jun 19 1:00 AM — Jul 4 1:00 AM, Guayaquil, Weather by CustomWeather, © 2015

Note: Actual official high and low records may vary slightly from our data, if they occured in-between our weather recording intervals... More about our weather records

Advertising

Guayaquil weather history for previous 24 hours

 ConditionsComfort  
Time TempWeatherWind HumidityBarometerVisibility
1:00 AM
Sat, Jul 4
75 °FPassing clouds.13 mph83%29.74 "HgN/A
12:00 AM77 °FPassing clouds.12 mph79%29.77 "HgN/A
11:00 PM
Fri, Jul 3
77 °FPassing clouds.10 mph79%29.74 "HgN/A
10:00 PM79 °FPassing clouds.10 mph74%29.74 "HgN/A
9:00 PM82 °FPassing clouds.12 mph70%29.74 "HgN/A
8:00 PM82 °FPassing clouds.10 mph74%29.71 "HgN/A
7:00 PM86 °FPassing clouds.1 mph62%29.65 "HgN/A
6:00 PM88 °FPassing clouds.6 mph59%29.65 "HgN/A
5:00 PM90 °FScattered clouds.7 mph55%29.62 "HgN/A
4:00 PM91 °FPartly sunny.7 mph52%29.65 "HgN/A
3:00 PM90 °FPartly sunny.7 mph55%29.65 "HgN/A
2:00 PM90 °FScattered clouds.6 mph52%29.68 "HgN/A
1:00 PM88 °FPassing clouds.8 mph59%29.74 "HgN/A
12:00 PM88 °FPassing clouds.8 mph55%29.74 "HgN/A
11:00 AM86 °FPassing clouds.6 mph62%29.74 "HgN/A
10:00 AM82 °FPassing clouds.5 mph70%29.77 "HgN/A
9:00 AM81 °FSunny.3 mph70%29.77 "Hg10 mi
8:00 AM77 °FSunny.3 mph79%29.77 "Hg10 mi
7:00 AM75 °FPassing clouds.3 mph83%29.74 "HgN/A
5:00 AM77 °FPassing clouds.6 mph74%29.71 "HgN/A
4:00 AM75 °FPassing clouds.7 mph83%29.71 "HgN/A
Weather by CustomWeather, © 2015

See weather overviewHow to use our weather pages